TimeCST,TemperatureF,Dew PointF,Humidity,Sea Level PressureIn,VisibilityMPH,Wind Direction,Wind SpeedMPH,Gust SpeedMPH,PrecipitationIn,Events,Conditions,WindDirDegrees,DateUTC
12:52 AM,21.9,10.9,63,30.07,-9999.0,NW,11.5,19.6,N/A,,Unknown,310,2013-12-05 06:52:00
1:52 AM,19.9,14.0,78,30.11,-9999.0,WNW,12.7,-,N/A,,Unknown,300,2013-12-05 07:52:00
2:52 AM,19.9,12.9,74,30.15,-9999.0,NW,12.7,18.4,0.03,,Unknown,310,2013-12-05 08:52:00
3:52 AM,21.0,10.0,63,30.18,-9999.0,WNW,12.7,19.6,N/A,,Unknown,300,2013-12-05 09:52:00
4:52 AM,19.9,8.1,60,30.21,-9999.0,NW,20.7,29.9,N/A,,Unknown,310,2013-12-05 10:52:00
5:52 AM,19.0,7.0,59,30.23,-9999.0,NW,12.7,21.9,N/A,,Unknown,320,2013-12-05 11:52:00
6:52 AM,18.0,7.0,62,30.26,-9999.0,NW,6.9,-,N/A,,Unknown,310,2013-12-05 12:52:00
7:52 AM,16.0,3.9,59,30.30,-9999.0,NW,15.0,25.3,N/A,,Unknown,310,2013-12-05 13:52:00
8:52 AM,18.0,5.0,57,30.33,-9999.0,NW,11.5,18.4,N/A,,Unknown,320,2013-12-05 14:52:00
9:52 AM,18.0,5.0,57,30.33,-9999.0,NW,11.5,20.7,N/A,,Unknown,320,2013-12-05 15:52:00
10:52 AM,18.0,6.1,60,30.33,-9999.0,NNW,10.4,20.7,N/A,,Unknown,330,2013-12-05 16:52:00
11:52 AM,19.0,6.1,57,30.34,-9999.0,NNW,8.1,18.4,N/A,,Unknown,340,2013-12-05 17:52:00
12:52 PM,19.9,7.0,57,30.33,-9999.0,NNW,11.5,17.3,N/A,,Unknown,330,2013-12-05 18:52:00
1:52 PM,19.9,6.1,55,30.32,-9999.0,North,9.2,-,N/A,,Unknown,350,2013-12-05 19:52:00
2:52 PM,19.9,6.1,55,30.32,-9999.0,NNW,6.9,-,N/A,,Unknown,340,2013-12-05 20:52:00
3:52 PM,19.9,7.0,57,30.35,-9999.0,NNW,4.6,-,N/A,,Unknown,340,2013-12-05 21:52:00
4:52 PM,19.9,7.0,57,30.35,-9999.0,NNW,5.8,-,N/A,,Unknown,330,2013-12-05 22:52:00
5:52 PM,19.9,7.0,57,30.40,-9999.0,Variable,4.6,-,N/A,,Unknown,0,2013-12-05 23:52:00
6:52 PM,19.0,6.1,57,30.41,-9999.0,NW,4.6,-,N/A,,Unknown,320,2013-12-06 00:52:00
7:52 PM,18.0,6.1,60,30.41,-9999.0,Variable,4.6,-,N/A,,Unknown,0,2013-12-06 01:52:00
8:52 PM,19.0,6.1,57,30.43,-9999.0,Variable,5.8,-,N/A,,Unknown,0,2013-12-06 02:52:00
9:52 PM,18.0,6.1,60,30.44,-9999.0,North,8.1,-,N/A,,Unknown,350,2013-12-06 03:52:00
10:52 PM,18.0,5.0,57,30.45,-9999.0,NNW,8.1,18.4,N/A,,Unknown,330,2013-12-06 04:52:00
11:52 PM,17.1,5.0,59,30.47,-9999.0,NNW,5.8,-,N/A,,Unknown,330,2013-12-06 05:52:00